Delta Virtual Airport Information Service

Fresno Yosemite International Airport

ICAO: KFAT Country: United States
Latitude: 36.7762 Longitude: -119.718
Latest Arrival : AAY108 (KLAS-KFAT) Latest Departure : UAL1285 (KFAT-KORD)


WX CaptureLIVE
Data provided by noaa.gov | Fetched at 03:15:31

METAR : KFAT 300753Z 07003KT 10SM CLR 06/02 A3006 RMK AO2 SLP177 T00560017 401500033

TAF : KFAT 300753Z 07003KT 10SM CLR 06/02 A3006 RMK AO2 SLP177 T00560017 401500033


Runway Data for KFAT
Data provided by openaviationdata.com

Runway ID Mag Var Hdg Length Elevation Surface ILS Freq ILS Id ILS Slope
11L 15 110° 9213 ft 336 ft Asphalt 111.3 IRPW 0
11R 15 110° 7203 ft 336 ft Asphalt -- -- --
29L 15 290° 7203 ft 336 ft Asphalt -- -- --
29R 15 290° 9213 ft 336 ft Asphalt 111.3 IFAT 3

Fresno Yosemite International Airport, United States
Use only for reference purposes



Not for navigational purposes.